Location: Vienna
(48.2082°N, 16.3738°E)
Time: 12:25:51
(UTC+01:00)

ISS - Pass Details

Date: 22 November 2019
Orbit: 411 x 421 km, 51.6° (Epoch: 08 December)

Event Time Altitude Azimuth Distance (km) Brightness Sun altitude
Rises 18:25:06 0° 220° (SW) 2,347 0.7 -22.2°
Reaches altitude 10° 18:27:17 10° 210° (SSW) 1,490 -0.5 -22.6°
Enters shadow 18:28:45 21° 193° (SSW) 994 -1.7 -22.8°
